[[{"header":{"parameterUnit":"m.s-1","parameterCategory":1,"la1":30.2991,"la2":30.254,"lo1":-89.0895,"lo2":-89.0444,"dy":0.0017,"dx":0.0017,"nx":28,"ny":28,"refTime":"2023-09-23T21:00:00:Z","depth":0,"parameterNumber":2,"parameterNumberName":"U-component_of_WINDS"},"data":[0,0,0,0,0,0,0,0,0,0,0,0,0,0,0,0,0,0,0,0,0,0,0,0,0,0,0,0,0,0,0,0,0,0,0,0,0,0,0,0,0,0,0,0,0,0,0,0,0,0,0,0,0,0,0,0,0,0,-0.7227,-0.7227,0,-0.7203,-0.7203,-0.7202,-0.7156,-0.7155,-0.7154,-0.7153,-0.7129,-0.7129,-0.713,0,0,0,0,0,0,0,0,0,0,0,0,0,-0.7235,-0.7235,-0.7227,-0.7227,-0.7227,-0.7203,-0.7203,-0.7202,-0.7156,-0.7155,-0.7154,-0.7153,-0.7129,-0.7129,-0.713,0,0,0,0,0,0,0,0,0,0,0,0,0,-0.7223,-0.7235,-0.7227,-0.7201,-0.7198,-0.7203,-0.7203,-0.7202,-0.7156,-0.7155,-0.7154,-0.7152,-0.7129,-0.7129,-0.713,-0.7159,0,0,-0.7131,-0.7131,0,0,0,0,0,0,0,0,-0.7224,-0.7223,-0.7205,-0.7203,-0.72,-0.7181,-0.7196,-0.7188,-0.7157,-0.7172,-0.7153,-0.7152,-0.7148,-0.7146,-0.7145,-0.7157,-0.7156,-0.7131,-0.7131,-0.7131,-0.7131,0,0,0,0,0,0,0,-0.7225,-0.7224,-0.7218,-0.7205,-0.7202,-0.719,-0.7187,-0.7194,-0.7168,-0.7171,-0.7167,-0.7165,-0.7146,-0.7145,-0.7144,-0.7156,-0.7131,-0.7131,-0.7131,-0.7131,-0.7191,-0.7192,0,0,0,0,0,0,-0.7229,-0.7225,-0.7218,-0.7217,-0.7209,-0.7191,-0.7188,-0.7189,-0.7168,-0.7163,-0.7166,-0.7163,-0.7145,-0.7144,-0.7143,-0.7175,-0.7131,-0.7131,-0.7131,-0.719,-0.7191,-0.7193,0,0,0,0,0,0,-0.723,-0.7229,-0.7219,-0.722,-0.7218,-0.7193,-0.7194,-0.7189,-0.7187,-0.7164,-0.7159,-0.717,-0.7144,-0.7142,-0.7155,-0.7174,-0.7131,-0.7132,-0.7188,-0.719,-0.7192,-0.724,0,0,0,0,0,0,-0.723,-0.723,-0.724,-0.7221,-0.7218,-0.7232,-0.7195,-0.7189,-0.7188,-0.7183,-0.7166,-0.7162,-0.7142,-0.7155,-0.7155,-0.7173,-0.7132,-0.7186,-0.7189,-0.7191,-0.7237,-0.7244,-0.7249,0,0,0,0,0,-0.7231,-0.7255,-0.7241,-0.7241,-0.7231,-0.7233,-0.7232,-0.7208,-0.719,-0.72,-0.7185,-0.7163,-0.7171,-0.7156,-0.7157,-0.7175,-0.7185,-0.7188,-0.7191,-0.7234,-0.7242,-0.7249,0,0,0,0,0,0,-0.7278,-0.7252,-0.7236,-0.7255,-0.7247,-0.7225,-0.7238,-0.7218,-0.7215,-0.7211,-0.7182,-0.7179,-0.7195,-0.7186,-0.717,-0.7202,-0.7175,-0.7178,-0.7207,-0.7215,-0.7221,-0.7223,-0.7132,0,0,0,0,0,-0.7291,-0.7295,-0.7272,-0.729,-0.7287,-0.7263,-0.7263,-0.7246,-0.7236,-0.7233,-0.7219,-0.7211,-0.7211,-0.7212,-0.7212,-0.7235,-0.7231,-0.7248,-0.7254,-0.726,-0.7263,-0.7274,-0.7282,-0.7203,-0.7203,-0.7203,0,0,-0.7317,-0.7303,-0.7307,-0.73,-0.7291,-0.7296,-0.7261,-0.7267,-0.7271,-0.7234,-0.7245,-0.7234,-0.7223,-0.7241,-0.7248,-0.7234,-0.7283,-0.7264,-0.7268,-0.7268,-0.7278,-0.7286,-0.7292,-0.7205,-0.7205,-0.7205,0,0,-0.7367,-0.7357,-0.7371,-0.7363,-0.7351,-0.7335,-0.7338,-0.732,-0.7311,-0.7322,-0.7294,-0.7298,-0.73,-0.7293,-0.729,-0.7337,-0.7316,-0.7338,-0.7371,-0.7383,-0.7389,-0.7394,-0.7411,-0.7417,-0.7341,-0.7341,-0.7341,0,-0.7401,-0.7407,-0.7381,-0.739,-0.7387,-0.7354,-0.7368,-0.7362,-0.735,-0.7349,-0.7333,-0.7335,-0.7325,-0.7341,-0.7352,-0.7351,-0.7354,-0.734,-0.739,-0.7395,-0.74,-0.7415,-0.7422,-0.7344,-0.7344,-0.7343,-0.7343,0,-0.745,-0.7454,-0.7468,-0.7456,-0.7455,-0.7467,-0.7443,-0.7445,-0.7428,-0.7414,-0.7424,-0.7411,-0.7407,-0.741,-0.7393,-0.7423,-0.7415,-0.7395,-0.7367,-0.741,-0.7425,-0.743,-0.7348,-0.7347,-0.7346,-0.7345,0,0,-0.7529,-0.7504,-0.7509,-0.7503,-0.7487,-0.749,-0.75,-0.7496,-0.7498,-0.7491,-0.7499,-0.7501,-0.7482,-0.7479,-0.7461,-0.7471,-0.7509,-0.745,-0.7449,-0.7461,-0.7542,-0.7557,-0.7564,-0.7495,-0.7496,-0.7497,-0.7542,0,-0.7576,-0.7591,-0.7568,-0.7588,-0.7592,-0.7561,-0.7569,-0.756,-0.7547,-0.7549,-0.7534,-0.7536,-0.7512,-0.7509,-0.7518,-0.7503,-0.7525,-0.7499,-0.7502,-0.7503,-0.7506,-0.7572,-0.7588,-0.7631,-0.7548,-0.7549,-0.755,0,-0.7632,-0.7627,-0.7648,-0.763,-0.7631,-0.7639,-0.7633,-0.7635,-0.7624,-0.7614,-0.761,-0.7589,-0.7598,-0.7571,-0.7582,-0.7565,-0.7565,-0.7558,-0.7559,-0.7559,-0.7529,-0.7573,-0.7644,-0.7651,-0.7558,-0.7557,-0.7557,0,-0.7688,-0.7687,-0.7699,-0.7695,-0.7675,-0.7681,-0.7673,-0.7661,-0.766,-0.7655,-0.7654,-0.765,-0.7648,-0.7646,-0.7625,-0.7607,-0.7639,-0.761,-0.7631,-0.7631,-0.7639,-0.7639,-0.7712,-0.7639,-0.7639,-0.7639,-0.7638,0,-0.7742,-0.7756,-0.7724,-0.7731,-0.7746,-0.772,-0.7735,-0.7724,-0.7713,-0.7718,-0.769,-0.7696,-0.7667,-0.7669,-0.7652,-0.7664,-0.7664,-0.7656,-0.7651,-0.7658,-0.766,-0.7658,-0.7655,-0.764,-0.764,-0.764,-0.7639,0,-0.7807,-0.7786,-0.7797,-0.7777,-0.7772,-0.7784,-0.7766,-0.7772,-0.7757,-0.7764,-0.7764,-0.7741,-0.7742,-0.772,-0.7717,-0.7706,-0.7726,-0.7716,-0.7729,-0.7726,-0.7748,-0.7747,-0.7823,-0.7831,-0.7753,-0.7754,-0.7755,0,-0.7843,-0.7853,-0.7834,-0.7835,-0.7828,-0.783,-0.7829,-0.7803,-0.7803,-0.7791,-0.7799,-0.7798,-0.7796,-0.7799,-0.7782,-0.7779,-0.7769,-0.7796,-0.7769,-0.7776,-0.777,-0.777,-0.7771,-0.7802,-0.7803,-0.7804,-0.7804,0,-0.791,-0.7899,-0.7898,-0.7893,-0.7892,-0.7888,-0.7881,-0.7884,-0.7856,-0.7857,-0.7858,-0.7856,-0.7853,-0.7852,-0.7846,-0.7838,-0.7817,-0.7813,-0.7818,-0.7825,-0.7833,-0.7829,-0.7745,-0.7812,-0.7811,-0.781,-0.781,-0.781,-0.7961,-0.7968,-0.7956,-0.7956,-0.7948,-0.7943,-0.7948,-0.7933,-0.7933,-0.7928,-0.7913,-0.7917,-0.7905,-0.7895,-0.7889,-0.7891,-0.7878,-0.7885,-0.7887,-0.7889,-0.7893,-0.7832,-0.789,-0.789,-0.789,-0.7889,-0.7889,0,-0.8026,-0.8016,-0.8017,-0.8008,-0.8008,-0.7988,-0.798,-0.7981,-0.7984,-0.7975,-0.7974,-0.7975,-0.7974,-0.7957,-0.7954,-0.7959,-0.7949,-0.7959,-0.7959,-0.7957,-0.7905,-0.7901,-0.7967,-0.7967,-0.7967,-0.7967,-0.7967,-0.7967,-0.806,-0.8071,-0.8059,-0.8066,-0.8056,-0.8059,-0.8056,-0.8051,-0.8044,-0.8046,-0.8045,-0.8034,-0.8022,-0.8018,-0.8016,-0.8011,-0.8011,-0.8025,-0.8016,-0.7968,-0.7961,-0.7953,-0.795,-0.8025,-0.8025,-0.8068,-0.8069,-0.8069]},{"header":{"parameterUnit":"m.s-1","parameterCategory":1,"la1":30.2991,"la2":30.254,"lo1":-89.0895,"lo2":-89.0444,"dy":0.0017,"dx":0.0017,"nx":28,"ny":28,"refTime":"2023-09-23T21:00:00:Z","depth":0,"parameterNumber":3,"parameterNumberName":"V-component_of_WINDS"},"data":[0,0,0,0,0,0,0,0,0,0,0,0,0,0,0,0,0,0,0,0,0,0,0,0,0,0,0,0,0,0,0,0,0,0,0,0,0,0,0,0,0,0,0,0,0,0,0,0,0,0,0,0,0,0,0,0,0,0,-0.1059,-0.1059,0,-0.1054,-0.1054,-0.1054,-0.1047,-0.1047,-0.1047,-0.1047,-0.1044,-0.1044,-0.1044,0,0,0,0,0,0,0,0,0,0,0,0,0,-0.1069,-0.1069,-0.1059,-0.1059,-0.1059,-0.1054,-0.1054,-0.1053,-0.1047,-0.1047,-0.1047,-0.1047,-0.1044,-0.1044,-0.1044,0,0,0,0,0,0,0,0,0,0,0,0,0,-0.1064,-0.1069,-0.1059,-0.1055,-0.1055,-0.1054,-0.1054,-0.1053,-0.1047,-0.1047,-0.1047,-0.1047,-0.1044,-0.1044,-0.1044,-0.1047,0,0,-0.1044,-0.1044,0,0,0,0,0,0,0,0,-0.1065,-0.1064,-0.1056,-0.1055,-0.1055,-0.1051,-0.1056,-0.1051,-0.1047,-0.105,-0.1047,-0.1047,-0.1046,-0.1046,-0.1046,-0.1047,-0.1046,-0.1044,-0.1044,-0.1044,-0.1044,0,0,0,0,0,0,0,-0.1065,-0.1064,-0.1057,-0.1056,-0.1055,-0.1055,-0.1054,-0.1055,-0.1049,-0.105,-0.105,-0.1049,-0.1046,-0.1046,-0.1045,-0.1046,-0.1044,-0.1044,-0.1044,-0.1044,-0.1054,-0.1054,0,0,0,0,0,0,-0.1065,-0.1064,-0.1057,-0.1057,-0.1059,-0.1055,-0.1054,-0.1052,-0.1049,-0.1049,-0.1049,-0.1049,-0.1046,-0.1045,-0.1045,-0.1051,-0.1044,-0.1044,-0.1044,-0.1053,-0.1054,-0.1054,0,0,0,0,0,0,-0.1066,-0.1065,-0.1057,-0.1061,-0.106,-0.1055,-0.1053,-0.1052,-0.1052,-0.1048,-0.1048,-0.1049,-0.1046,-0.1045,-0.1047,-0.1051,-0.1044,-0.1044,-0.1053,-0.1053,-0.1054,-0.1061,0,0,0,0,0,0,-0.1066,-0.1065,-0.1064,-0.1061,-0.1059,-0.1058,-0.1053,-0.1052,-0.1052,-0.1051,-0.1048,-0.1048,-0.1045,-0.1047,-0.1047,-0.1051,-0.1044,-0.1053,-0.1053,-0.1054,-0.106,-0.1061,-0.1062,0,0,0,0,0,-0.1066,-0.1066,-0.1064,-0.1064,-0.1059,-0.1058,-0.1057,-0.1054,-0.1052,-0.1053,-0.1051,-0.1048,-0.105,-0.1047,-0.1047,-0.1051,-0.1053,-0.1053,-0.1054,-0.106,-0.1061,-0.1062,0,0,0,0,0,0,-0.107,-0.1065,-0.1063,-0.1062,-0.106,-0.1057,-0.1057,-0.1055,-0.1054,-0.1054,-0.1051,-0.105,-0.1053,-0.1052,-0.1049,-0.1056,-0.1051,-0.1052,-0.1056,-0.1057,-0.1058,-0.1059,-0.1044,0,0,0,0,0,-0.1071,-0.107,-0.1066,-0.1065,-0.1065,-0.1061,-0.1061,-0.1059,-0.1057,-0.1057,-0.1055,-0.1055,-0.1056,-0.1056,-0.1057,-0.106,-0.1061,-0.1063,-0.1064,-0.1065,-0.1066,-0.1071,-0.1072,-0.1056,-0.1056,-0.1056,0,0,-0.1073,-0.107,-0.1069,-0.1066,-0.1065,-0.1065,-0.1061,-0.106,-0.1062,-0.1057,-0.1059,-0.1058,-0.1058,-0.1061,-0.1063,-0.106,-0.1071,-0.1066,-0.1066,-0.1067,-0.1072,-0.1073,-0.1075,-0.1056,-0.1056,-0.1056,0,0,-0.1076,-0.1073,-0.1073,-0.1072,-0.1071,-0.1069,-0.1069,-0.1067,-0.1066,-0.1068,-0.1066,-0.1068,-0.1068,-0.1069,-0.107,-0.1078,-0.1076,-0.1078,-0.1084,-0.1089,-0.109,-0.1091,-0.1096,-0.1098,-0.1079,-0.1079,-0.1079,0,-0.1078,-0.1077,-0.1074,-0.1075,-0.1075,-0.1071,-0.1073,-0.1073,-0.1071,-0.1073,-0.107,-0.1074,-0.1073,-0.1078,-0.108,-0.108,-0.1082,-0.1078,-0.109,-0.1091,-0.1092,-0.1097,-0.1099,-0.1079,-0.1079,-0.1079,-0.1079,0,-0.1082,-0.1082,-0.1083,-0.1082,-0.1082,-0.1084,-0.1082,-0.1083,-0.1082,-0.1082,-0.1086,-0.1085,-0.1087,-0.1088,-0.1086,-0.1094,-0.1093,-0.109,-0.1086,-0.1094,-0.1099,-0.1101,-0.108,-0.108,-0.1079,-0.1079,0,0,-0.1085,-0.1085,-0.1086,-0.1087,-0.1086,-0.1087,-0.109,-0.1092,-0.1094,-0.1094,-0.1098,-0.1101,-0.1099,-0.11,-0.1099,-0.1103,-0.1113,-0.11,-0.11,-0.1104,-0.1125,-0.1128,-0.113,-0.1112,-0.1112,-0.1112,-0.1125,0,-0.109,-0.1093,-0.1092,-0.1096,-0.1098,-0.1097,-0.11,-0.1101,-0.1101,-0.1104,-0.1105,-0.1108,-0.1104,-0.1105,-0.1109,-0.111,-0.1117,-0.1109,-0.1117,-0.1117,-0.1118,-0.1132,-0.1134,-0.1146,-0.1127,-0.1127,-0.1127,0,-0.1094,-0.1096,-0.1101,-0.1103,-0.1104,-0.1106,-0.111,-0.1112,-0.1115,-0.1115,-0.1118,-0.1117,-0.1122,-0.1118,-0.1127,-0.1122,-0.1125,-0.1127,-0.1127,-0.1128,-0.1123,-0.1135,-0.115,-0.1152,-0.113,-0.113,-0.1129,0,-0.1099,-0.1102,-0.1106,-0.1107,-0.111,-0.1112,-0.1113,-0.1116,-0.1118,-0.1122,-0.1124,-0.1128,-0.1131,-0.1135,-0.1136,-0.1133,-0.1146,-0.1141,-0.1148,-0.1149,-0.1151,-0.1151,-0.1169,-0.1152,-0.1152,-0.1152,-0.1152,0,-0.1105,-0.1108,-0.1109,-0.1112,-0.1117,-0.1117,-0.1122,-0.1123,-0.1127,-0.1131,-0.113,-0.1135,-0.1135,-0.1141,-0.1142,-0.1151,-0.1152,-0.1154,-0.1154,-0.1154,-0.1154,-0.1157,-0.1157,-0.1152,-0.1152,-0.1152,-0.1152,0,-0.111,-0.1111,-0.1116,-0.1119,-0.112,-0.1124,-0.1127,-0.1131,-0.1132,-0.1138,-0.114,-0.1142,-0.1149,-0.1151,-0.1158,-0.116,-0.1171,-0.117,-0.117,-0.117,-0.1178,-0.1178,-0.1199,-0.1202,-0.1181,-0.1182,-0.1182,0,-0.1114,-0.1117,-0.1121,-0.1124,-0.1126,-0.113,-0.1133,-0.1134,-0.1138,-0.1143,-0.1147,-0.1154,-0.1159,-0.1171,-0.1174,-0.1181,-0.1181,-0.1188,-0.1182,-0.1184,-0.1184,-0.1184,-0.1186,-0.119,-0.119,-0.119,-0.119,0,-0.1121,-0.1122,-0.1126,-0.1132,-0.1135,-0.114,-0.1144,-0.1146,-0.1149,-0.1153,-0.116,-0.1165,-0.1174,-0.1182,-0.119,-0.1193,-0.1193,-0.1192,-0.1195,-0.1195,-0.1196,-0.1198,-0.1174,-0.1192,-0.1191,-0.1191,-0.1191,-0.1191,-0.1127,-0.1131,-0.1135,-0.1141,-0.1145,-0.1149,-0.1154,-0.1157,-0.1163,-0.1171,-0.1171,-0.118,-0.1186,-0.1197,-0.1201,-0.1209,-0.1207,-0.121,-0.1211,-0.1212,-0.1214,-0.1194,-0.121,-0.121,-0.121,-0.121,-0.121,0,-0.1136,-0.1139,-0.1145,-0.1151,-0.1157,-0.1156,-0.1162,-0.1167,-0.1174,-0.118,-0.1186,-0.1196,-0.1205,-0.121,-0.1219,-0.1225,-0.1226,-0.1228,-0.1228,-0.1229,-0.1214,-0.1211,-0.1227,-0.1227,-0.1227,-0.1227,-0.1227,-0.1227,-0.1141,-0.1149,-0.1151,-0.1162,-0.1166,-0.1174,-0.1178,-0.1183,-0.1188,-0.12,-0.1207,-0.121,-0.1217,-0.1227,-0.1236,-0.1237,-0.1242,-0.1244,-0.1246,-0.1231,-0.123,-0.1228,-0.1226,-0.1245,-0.1245,-0.1261,-0.1261,-0.1261]}]]